OBJECT E, 61242

Orbit data source: Space-Track

You're viewing an Uncataloged Satellite

Recently launched and/or uncataloged satellites may have evolving metadata. Metadata may include but not limited to: Owner, Maufacturer, Bus, Motor, and Mission.

OBJECT E, 61242 is a Chinese satellite in SSO that was launched on Tue, 24 Sep 2024 UTC via a LIJIAN-1 launch vehicle from the Jiuquan Satellite Launch Center, China (JSC). Unknown objects in Earth's orbit typically refer to objects detected orbiting the Earth but have not yet been identified or cataloged. These objects could be anything from previously untracked satellites, spent rocket stages, debris from satellite collisions, or even natural meteoroids temporarily captured by Earth's gravity.

Loading next visibility...
Identifier
61242, 2024-174E
Orbit
SSO
Country
Flag of CNCN / PRC
Related business
None
Manufacturer
Unknown
Mission
Operational Commercial Meteo Radio Occ.
Bus & Motor
Unknown
Mass
Unknown
Launch date (UTC)
2024-09-24 (2 years ago)
Launch vehicle
LIJIAN-1
Launch site
Jiuquan Satellite Launch Center, China (JSC)
Object type
Unknown
Shape & HBR
Box + 1 Pan, 2.5 m
Radar Cross Section
5.339 m², Medium (>0.1 m² and < 1m²)

Expand to show TLE details & history
Last TLE update: 7 hours ago

TLE from 7 hours ago
0 OBJECT E
1 61242U 24174E   26095.27360847  .00009486  00000-0  36307-3 0  9991
2 61242  97.4495 106.3849 0014946 127.3619 232.8984 15.26674283 84719
Epoch: 2026-04-05T06:33Z
TLE epoch observation values (Epoch: 2026-04-05T06:33:59.771Z)
Latitude
0.00001°
Longitude
174.30446°
Altitude
495.06 km
Speed
7.614 km/s
True Right ascension
07h 05m 32s
True Declination
0° 00' 00"
Sunlit
Object was in daylight at epoch
Visualization orbit readout
Latitude
Unknown
Longitude
Unknown
Altitude
Unknown
Speed
Unknown
Apparent Right ascension
Unknown
Apparent Declination
Unknown
Sunlit
N/A
Visualization observer readout
Local Sidereal Time
19:30:32
Azimuth
Unknown
Elevation
Unknown
Doppler factor
Unknown
Orbital elements
Apogee altitude
492.976 km
Perigee altitude
472.467 km
Semi-major axis
6,860.858 km
Eccentricity
0.00149
Inclination
97.4495°
RAAN
106.3849°
Arg. of periapsis
127.3619°
True anomaly
232.76196°
Mean anomaly
232.8984°
Eccentric anomaly
232.83016°
Mean motion
3.81923 °/min
Orbital period
94.26 mins
BSTAR
0.00036307
Loading maneuver chart data...
Computing Atmospheric mass density...
Loading historical data...
Loading historical data...
Loading historical data...
Loading historical data...
Loading historical data...
Loading historical data...
Loading historical data...

Documentation

Showing up to 5 results
|